Content
SEND FEEDBACK

Daily
Averages
Monthly
Summary
United States of America

KALAOA, HAWAII


Home > North America > United States > Hawaii
Elevation: 2000 feet     Latitude: 19 44N     Longitude: 155 59W

WEATHER
 
SELECT A DAY
Number of Records: 168,357;   Date Range: 1/1/95 - 7/22/14
 
SHARE

PRINT THIS DATA

[ ← Previous Day ]
WEATHER ALMANAC - JANUARY 3, 2013
[ Next Day → ]
[ °C ]   °F
Weather ElementAverageHighLow
Temperature75.9 °F82 °F (11:53 am)71.1 °F (5:53 am)
Dewpoint63.6 °F66 °F (10:53 am)59 °F (4:53 am)
Humidity65.9 %76 % (8:53 pm)58 % (11:53 am)
Barometer29.97 in30.02 in (9:53 am)29.94 in (3:53 am)
Wind Speed6.9 mph11.5 mph (3:53 pm)
Weather ElementAverage
Visibility10 mi
Wind DirectionSSE (167.5 °)

Weather ElementTotal
Precipitation---
Cooling Degree Days11.6 (Base 65)
Growing Degree Days26.6 (Base 50)
Averaged from 24 records on January 3, 2013
WEATHER CONDITIONS BREAKOUT
WIND DIRECTION BREAKOUT
WEATHER BY HOUR - JANUARY 3, 2013
[ °C ]   °F
Local TimeTemperatureDewpointHumidityBarometerVisibilityWind DirectionWind SpeedGust SpeedPrecipitationEventsConditions
1:53 AM73.9 °F62.1 °F66 %29.97 in10.0 miESE (120°)4.6 mphPartly Cloudy
2:53 AM73.9 °F63.0 °F68 %29.96 in10.0 miEast (90°)3.5 mphOvercast
3:53 AM72.0 °F60.1 °F66 %29.94 in10.0 miNE (50°)5.8 mphClear
4:53 AM72.0 °F59.0 °F64 %29.94 in10.0 miCalmClear
5:53 AM71.1 °F59.0 °F66 %29.94 in10.0 miSE (140°)4.6 mphClear
6:53 AM71.1 °F60.1 °F68 %29.95 in10.0 miSE (130°)8.1 mphClear
7:53 AM72.0 °F59.0 °F64 %29.98 in10.0 miSE (130°)4.6 mphClear
8:53 AM77.0 °F62.1 °F60 %30.01 in10.0 miSSE (150°)8.1 mphClear
9:53 AM79.0 °F64.9 °F62 %30.02 in10.0 miSouth (180°)8.1 mphClear
10:53 AM79.0 °F66.0 °F64 %30.01 in10.0 miSouth (180°)9.2 mphClear
11:53 AM82.0 °F66.0 °F58 %29.98 in10.0 miSSW (210°)9.2 mphClear
12:53 PM79.0 °F64.9 °F62 %29.96 in10.0 miSW (230°)9.2 mphScattered Clouds
1:53 PM80.1 °F66.0 °F62 %29.95 in10.0 miWest (260°)9.2 mphMostly Cloudy
2:53 PM79.0 °F64.9 °F62 %29.94 in10.0 miWest (270°)8.1 mphMostly Cloudy
3:53 PM80.1 °F64.9 °F60 %29.94 in10.0 miWest (270°)11.5 mphMostly Cloudy
4:53 PM79.0 °F66.0 °F64 %29.94 in10.0 miWest (270°)8.1 mphMostly Cloudy
5:04 PM78.8 °F64.4 °F61 %29.94 in10.0 miWest (270°)9.2 mphMostly Cloudy
5:53 PM77.0 °F66.0 °F69 %29.96 in10.0 miWest (260°)8.1 mphMostly Cloudy
6:53 PM77.0 °F64.9 °F66 %29.98 in10.0 miSSW (200°)3.5 mphClear
7:53 PM75.9 °F66.0 °F71 %29.99 in10.0 miSouth (170°)6.9 mphClear
8:53 PM73.9 °F66.0 °F76 %30.01 in10.0 miEast (100°)4.6 mphPartly Cloudy
9:53 PM73.0 °F64.0 °F73 %30.01 in10.0 miESE (110°)8.1 mphClear
10:53 PM73.0 °F64.0 °F73 %30.01 in10.0 miESE (120°)6.9 mphClear
11:53 PM72.0 °F64.0 °F76 %30.00 in10.0 miESE (110°)5.8 mphClear
Hourly data recorded from PHKO, located miles away from Kalaoa, Hawaii







STORIES FROM OUR PARTNERS